GW1008 Weather Reports


Display with metric or nautical units.
time (UTC)temp
F
wind
direction
speed
MPH
gust
MPH
rain 1hr
in
rain 24hr
in
rain mn
in
humidity
%
barometer
mb
20260904125016 65 268 6.0 22.0 0.00 0.00 0.00 56 999.1
20260904124534 65 307 4.0 19.0 0.00 0.00 0.00 59 999.3
20260904124018 65 0 7.0 20.0 0.00 0.00 0.00 57 999.3
20260904123518 64 299 6.0 20.0 0.00 0.00 0.00 56 999.2
20260904123034 65 263 5.0 23.0 0.00 0.00 0.00 57 999.0
20260904122520 64 277 9.0 23.0 0.00 0.00 0.00 57 999.0
20260904122018 64 294 9.0 23.0 0.00 0.00 0.00 56 998.8
20260904121534 64 296 10.0 29.0 0.00 0.00 0.00 56 998.8
20260904121016 64 291 7.0 29.0 0.00 0.00 0.00 56 998.7
20260904120516 64 295 9.0 24.0 0.00 0.00 0.00 55 998.8
20260904120031 65 306 9.0 24.0 0.00 0.00 0.00 55 998.7
20260904115517 65 303 4.0 19.0 0.00 0.00 0.00 57 998.6
20260904115016 65 273 6.0 19.0 0.00 0.00 0.00 56 998.7
20260904114537 65 0 4.0 15.0 0.00 0.00 0.00 57 998.7
20260904114018 64 0 2.0 16.0 0.00 0.00 0.00 59 998.6
20260904113517 64 288 3.0 21.0 0.00 0.00 0.00 59 998.7
20260904113037 64 292 7.0 21.0 0.00 0.00 0.00 58 998.8
20260904112517 64 286 5.0 20.0 0.00 0.00 0.00 58 998.8
20260904112016 64 306 4.0 20.0 0.00 0.00 0.00 58 998.7
20260904111532 64 273 8.0 22.0 0.00 0.00 0.00 57 998.5
20260904111017 64 299 3.0 22.0 0.00 0.00 0.00 60 998.6
20260904110517 63 337 7.0 22.0 0.00 0.00 0.00 59 998.5
20260904110035 63 292 4.0 21.0 0.00 0.00 0.00 59 998.3
20260904105519 62 283 7.0 21.0 0.00 0.00 0.00 59 998.3
20260904105015 62 275 3.0 15.0 0.00 0.00 0.00 65 998.3
20260904104533 62 296 6.0 15.0 0.00 0.00 0.00 63 998.3
20260904104016 62 0 3.0 13.0 0.00 0.00 0.00 62 998.0
20260904103519 63 287 5.0 13.0 0.00 0.00 0.00 62 997.9
20260904103034 64 0 1.0 10.0 0.00 0.00 0.00 66 997.7
20260904102518 64 267 0.0 13.0 0.00 0.00 0.00 66 997.7
20260904102017 64 0 2.0 18.0 0.00 0.00 0.00 67 997.6
20260904101534 64 250 5.0 18.0 0.00 0.00 0.00 67 997.4
20260904101015 63 0 3.0 15.0 0.00 0.00 0.00 66 997.5
20260904100515 64 229 3.0 16.0 0.00 0.00 0.00 66 997.4
20260904100032 64 311 3.0 16.0 0.00 0.00 0.00 65 997.3
20260904095519 64 282 2.0 15.0 0.00 0.00 0.00 65 997.3
20260904095015 64 0 2.0 13.0 0.00 0.00 0.00 67 997.3
20260904094541 63 257 1.0 13.0 0.00 0.00 0.00 69 997.2
20260904094019 62 0 3.0 14.0 0.00 0.00 0.00 68 997.4
20260904093516 61 245 3.0 14.0 0.00 0.00 0.00 70 997.3
20260904093040 61 247 1.0 13.0 0.00 0.00 0.00 71 997.3
20260904092517 60 0 1.0 14.0 0.00 0.00 0.00 70 997.4
20260904092017 61 0 3.0 14.0 0.00 0.00 0.00 69 997.5
20260904091536 60 0 2.0 12.0 0.00 0.00 0.00 71 997.5
20260904091019 60 0 3.0 16.0 0.00 0.00 0.00 72 997.5
20260904090518 60 0 2.0 16.0 0.00 0.00 0.00 72 997.5
20260904090033 59 0 2.0 16.0 0.00 0.00 0.00 72 997.4
20260904085518 58 237 1.0 14.0 0.00 0.00 0.00 74 997.4
20260904085016 58 278 4.0 16.0 0.00 0.00 0.00 73 997.5
20260904084536 58 256 5.0 16.0 0.00 0.00 0.00 73 997.4
20260904084018 58 0 3.0 12.0 0.00 0.00 0.00 73 997.6
20260904083517 58 263 2.0 12.0 0.00 0.00 0.00 76 997.6
20260904083035 57 0 1.0 12.0 0.00 0.00 0.00 76 997.7
20260904082515 57 0 2.0 19.0 0.00 0.00 0.00 76 997.8
20260904082018 57 236 3.0 19.0 0.00 0.00 0.00 76 997.8
20260904081532 57 0 3.0 13.0 0.00 0.00 0.00 76 997.9
20260904081019 57 263 2.0 11.0 0.00 0.00 0.00 76 998.0
20260904080519 57 234 1.0 12.0 0.00 0.00 0.00 76 997.9
20260904080034 57 272 2.0 13.0 0.00 0.00 0.00 75 998.0
20260904075520 57 0 3.0 13.0 0.00 0.01 0.00 75 997.9
20260904075015 58 0 2.0 10.0 0.00 0.01 0.00 75 997.9
20260904074533 57 246 2.0 10.0 0.00 0.01 0.00 76 997.9
20260904074019 57 0 1.0 10.0 0.00 0.01 0.00 76 998.1
20260904073521 57 0 1.0 10.0 0.00 0.01 0.00 74 998.1
20260904073032 56 0 0.0 8.0 0.00 0.01 0.00 75 998.1
20260904072515 55 0 1.0 8.0 0.00 0.01 0.00 76 998.1
20260904072014 55 0 0.0 3.0 0.00 0.01 0.00 78 998.1
20260904071536 54 0 0.0 0.0 0.00 0.01 0.00 79 998.2
20260904071018 53 0 0.0 7.0 0.00 0.01 0.00 79 998.3
20260904070519 53 0 0.0 7.0 0.00 0.01 0.00 79 998.3
20260904070033 52 0 0.0 1.0 0.00 0.01 0.00 80 998.4
20260904065523 52 0 0.0 0.0 0.00 0.01 0.00 80 998.4
20260904065018 52 0 0.0 0.0 0.00 0.01 0.00 79 998.5
20260904064539 52 0 0.0 3.0 0.00 0.01 0.00 80 998.5
20260904064015 52 0 0.0 3.0 0.00 0.01 0.00 79 998.5
20260904063518 52 0 0.0 0.0 0.00 0.01 0.00 79 998.5
20260904063038 52 0 0.0 2.0 0.00 0.01 0.00 79 998.6
20260904062522 52 0 0.0 2.0 0.00 0.01 0.00 80 998.6
20260904062015 51 0 0.0 0.0 0.00 0.01 0.00 81 998.6
20260904061539 51 0 0.0 6.0 0.00 0.01 0.00 83 998.8
20260904061021 50 0 0.0 6.0 0.00 0.01 0.00 85 998.9
20260904060518 50 0 0.0 6.0 0.00 0.01 0.00 85 998.9
20260904060057 49 0 0.0 0.0 0.00 0.01 0.00 86 998.9
20260904055518 49 0 0.0 0.0 0.00 0.01 0.00 85 998.9
20260904055016 48 0 0.0 0.0 0.00 0.01 0.00 85 999.0
20260904054541 48 0 0.0 0.0 0.00 0.01 0.00 84 999.0
20260904054021 48 0 0.0 0.0 0.00 0.01 0.00 84 999.0
20260904053517 48 0 0.0 0.0 0.00 0.01 0.00 83 999.0
20260904053035 48 0 0.0 0.0 0.00 0.01 0.00 83 999.1
20260904052519 48 0 0.0 0.0 0.00 0.01 0.00 83 999.0
20260904052016 49 0 0.0 0.0 0.00 0.01 0.00 83 999.0
20260904051533 49 0 0.0 0.0 0.00 0.01 0.00 83 999.1
20260904051016 49 0 0.0 4.0 0.00 0.01 0.00 83 999.2
20260904050517 49 0 0.0 5.0 0.00 0.01 0.00 84 999.1
20260904050043 49 0 0.0 5.0 0.00 0.01 0.00 85 999.1
20260904045518 48 0 0.0 5.0 0.00 0.01 0.00 85 999.2
20260904045019 48 0 0.0 0.0 0.00 0.01 0.00 85 999.1
20260904044532 48 0 0.0 0.0 0.00 0.01 0.00 85 999.3
20260904044016 48 0 0.0 0.0 0.00 0.01 0.00 85 999.3
20260904043519 47 0 0.0 3.0 0.00 0.01 0.00 85 999.4
20260904043031 47 0 0.0 3.0 0.00 0.01 0.00 84 999.5
20260904042515 47 0 0.0 3.0 0.00 0.01 0.00 83 999.7
20260904042018 48 0 0.0 0.0 0.00 0.01 0.00 82 999.9
20260904041535 48 0 0.0 0.0 0.00 0.01 0.00 82 999.9
20260904041014 48 0 0.0 0.0 0.00 0.01 0.00 82 1000.0
20260904040514 49 0 0.0 0.0 0.00 0.01 0.00 82 1000.1
20260904040041 49 0 0.0 0.0 0.00 0.01 0.00 83 1000.2
20260904035517 49 0 0.0 0.0 0.00 0.01 0.00 84 1000.2
20260904035023 50 0 0.0 4.0 0.00 0.01 0.00 85 1000.2
20260904034532 50 0 0.0 11.0 0.00 0.01 0.00 85 1000.1
20260904034016 49 0 0.0 11.0 0.00 0.01 0.00 84 1000.1
20260904033518 49 250 0.0 3.0 0.00 0.01 0.00 82 1000.0
20260904033036 50 0 0.0 0.0 0.00 0.01 0.00 82 1000.1
20260904032517 50 0 0.0 0.0 0.00 0.01 0.00 82 1000.2
20260904032015 51 0 0.0 0.0 0.00 0.01 0.00 81 1000.3
20260904031533 51 0 0.0 0.0 0.00 0.01 0.00 82 1000.3
20260904031017 52 0 0.0 0.0 0.00 0.01 0.00 82 1000.4
20260904030514 53 0 0.0 0.0 0.00 0.01 0.00 81 1000.5
20260904030038 53 0 0.0 0.0 0.00 0.01 0.00 82 1000.3
20260904025516 54 0 0.0 0.0 0.00 0.01 0.00 82 1000.3
20260904025017 54 0 0.0 0.0 0.00 0.01 0.00 83 1000.3
20260904024535 54 0 0.0 0.0 0.00 0.01 0.00 83 1000.3
20260904024017 54 0 0.0 0.0 0.00 0.01 0.00 84 1000.3
20260904023518 54 0 0.0 0.0 0.00 0.01 0.00 83 1000.5
20260904023039 54 0 0.0 0.0 0.00 0.01 0.00 83 1000.4
20260904022518 54 0 0.0 0.0 0.00 0.01 0.00 83 1000.5
20260904022016 54 0 0.0 0.0 0.00 0.01 0.00 83 1000.4
20260904021546 55 0 0.0 0.0 0.00 0.01 0.00 83 1000.6
20260904021016 54 0 0.0 0.0 0.00 0.01 0.00 83 1000.6
20260904020516 54 0 0.0 0.0 0.00 0.01 0.00 83 1000.7
20260904020033 54 0 0.0 0.0 0.00 0.01 0.00 84 1000.7
20260904015518 54 0 0.0 5.0 0.00 0.01 0.00 84 1000.7
20260904015021 54 0 0.0 5.0 0.00 0.01 0.00 84 1000.7
20260904014532 53 0 0.0 5.0 0.00 0.01 0.00 85 1000.7
20260904014018 53 0 0.0 3.0 0.00 0.01 0.00 85 1000.7
20260904013518 52 0 0.0 6.0 0.00 0.01 0.00 84 1000.7
20260904013045 52 0 0.0 6.0 0.00 0.01 0.00 85 1000.8
20260904012518 52 160 0.0 4.0 0.00 0.01 0.00 82 1000.8
20260904012016 52 0 0.0 0.0 0.00 0.01 0.00 81 1000.9
20260904011535 53 0 0.0 0.0 0.00 0.01 0.00 80 1001.0
20260904011017 53 0 0.0 0.0 0.00 0.01 0.00 81 1001.1
20260904010515 54 0 0.0 0.0 0.00 0.01 0.00 81 1001.2
20260904010034 54 0 0.0 0.0 0.00 0.01 0.00 81 1001.4
20260904005516 54 0 0.0 3.0 0.00 0.07 0.00 82 1001.5
20260904005020 54 0 0.0 3.0 0.00 0.07 0.00 81 1001.5
20260904004533 54 0 0.0 3.0 0.00 0.07 0.00 82 1001.6
20260904004015 55 0 0.0 6.0 0.00 0.07 0.00 81 1001.6
20260904003515 55 0 0.0 6.0 0.00 0.07 0.00 81 1001.7
20260904003032 55 0 0.0 1.0 0.00 0.07 0.00 81 1001.7
20260904002519 55 0 0.0 2.0 0.00 0.07 0.00 81 1001.7
20260904002017 55 0 0.0 2.0 0.00 0.07 0.00 81 1001.9
20260904001552 54 0 0.0 2.0 0.00 0.07 0.00 81 1001.9
20260904001018 54 0 0.0 0.0 0.00 0.07 0.00 81 1001.9
20260904000520 54 0 0.0 0.0 0.00 0.07 0.00 82 1002.0
20260904000033 54 0 0.0 0.0 0.00 0.07 0.00 82 1002.1
20260903235516 54 0 0.0 0.0 0.00 0.20 0.00 82 1002.1
20260903235016 54 0 0.0 3.0 0.00 0.20 0.00 81 1002.3
20260903234534 54 0 0.0 3.0 0.00 0.20 0.00 81 1002.4
20260903234019 54 0 0.0 8.0 0.00 0.20 0.00 81 1002.5
20260903233517 54 0 0.0 8.0 0.00 0.20 0.00 82 1002.7
20260903233041 54 0 0.0 0.0 0.00 0.20 0.00 82 1002.8
20260903232519 54 0 0.0 0.0 0.00 0.20 0.00 81 1002.8
20260903232018 54 0 0.0 4.0 0.00 0.20 0.00 81 1002.8
20260903231534 54 0 0.0 4.0 0.00 0.20 0.00 81 1002.8
20260903231018 54 0 0.0 0.0 0.00 0.20 0.00 80 1002.9
20260903230519 54 0 0.0 3.0 0.00 0.20 0.00 80 1002.9
20260903230036 54 0 0.0 9.0 0.00 0.20 0.00 80 1003.0
20260903225516 54 0 0.0 9.0 0.00 0.20 0.20 80 1003.0
20260903225019 54 0 0.0 9.0 0.00 0.20 0.20 80 1003.2
20260903224537 54 0 0.0 7.0 0.00 0.20 0.20 80 1003.2
20260903224019 54 0 0.0 3.0 0.00 0.20 0.20 80 1003.4
20260903223515 54 0 0.0 3.0 0.00 0.20 0.20 79 1003.4
20260903223033 54 0 0.0 0.0 0.00 0.20 0.20 79 1003.4
20260903222518 55 0 0.0 6.0 0.00 0.20 0.20 78 1003.4
20260903222016 55 0 0.0 6.0 0.00 0.20 0.20 78 1003.3
20260903221533 55 0 0.0 11.0 0.00 0.20 0.20 78 1003.5
20260903221015 55 0 1.0 11.0 0.00 0.20 0.20 78 1003.5
20260903220518 55 0 1.0 11.0 0.00 0.20 0.20 79 1003.7
20260903220034 55 255 3.0 11.0 0.00 0.20 0.20 79 1003.7
20260903215518 55 0 0.0 11.0 0.00 0.20 0.20 78 1003.9
20260903215016 55 0 0.0 11.0 0.00 0.20 0.20 78 1003.8
20260903214534 55 0 2.0 11.0 0.00 0.20 0.20 78 1003.9
20260903214021 56 0 0.0 7.0 0.00 0.20 0.20 78 1004.0
20260903213518 56 254 0.0 10.0 0.00 0.20 0.20 78 1004.1
20260903213046 56 281 1.0 10.0 0.00 0.20 0.20 78 1004.0
20260903212518 56 245 1.0 7.0 0.00 0.20 0.20 79 1004.0
20260903212016 56 226 0.0 7.0 0.00 0.20 0.20 79 1003.8
20260903211534 56 0 1.0 7.0 0.00 0.20 0.20 79 1004.0
20260903211018 56 256 1.0 8.0 0.00 0.20 0.20 79 1004.0
20260903210519 56 0 1.0 8.0 0.00 0.20 0.20 79 1004.0
20260903210035 55 0 0.0 7.0 0.00 0.20 0.20 80 1004.0
20260903205518 55 0 0.0 6.0 0.00 0.20 0.20 81 1003.9
20260903205020 55 0 0.0 2.0 0.00 0.20 0.20 82 1004.1
20260903204533 55 0 0.0 2.0 0.00 0.20 0.20 82 1004.3
20260903204015 55 0 0.0 0.0 0.00 0.20 0.20 82 1004.4
20260903203516 55 0 0.0 0.0 0.00 0.20 0.20 82 1004.4
20260903203034 55 0 0.0 0.0 0.00 0.20 0.20 82 1004.4
20260903202518 55 0 0.0 0.0 0.00 0.20 0.20 82 1004.5
20260903202016 55 0 0.0 0.0 0.00 0.20 0.20 82 1004.5
20260903201535 55 0 0.0 3.0 0.00 0.20 0.20 82 1004.6
20260903201020 54 0 0.0 3.0 0.00 0.20 0.20 82 1004.6
20260903200518 54 0 0.0 2.0 0.00 0.20 0.20 82 1004.6
20260903200035 54 0 0.0 0.0 0.00 0.20 0.20 82 1004.6
20260903195516 54 0 0.0 0.0 0.00 0.20 0.20 81 1004.7
20260903195016 55 0 0.0 0.0 0.00 0.20 0.20 81 1004.7
20260903194533 55 0 0.0 0.0 0.00 0.20 0.20 81 1004.7
20260903194023 55 0 0.0 0.0 0.00 0.20 0.20 81 1004.7
20260903193515 55 0 0.0 0.0 0.00 0.20 0.20 81 1004.7
20260903193037 55 0 0.0 0.0 0.00 0.20 0.20 81 1004.8
20260903192519 55 0 0.0 0.0 0.00 0.20 0.20 81 1004.7
20260903192019 55 0 0.0 0.0 0.00 0.20 0.20 81 1004.7
20260903191540 56 0 0.0 1.0 0.00 0.20 0.20 81 1004.8
20260903191018 56 0 0.0 1.0 0.00 0.20 0.20 81 1004.8
20260903190518 56 0 0.0 1.0 0.00 0.20 0.20 80 1004.8
20260903190033 56 0 0.0 0.0 0.00 0.20 0.20 80 1004.8
20260903185515 56 0 0.0 0.0 0.00 0.20 0.20 80 1004.8
20260903185015 56 0 0.0 1.0 0.00 0.20 0.20 80 1004.8
20260903184531 56 0 0.0 1.0 0.00 0.20 0.20 80 1005.0
20260903184015 56 0 0.0 1.0 0.00 0.20 0.20 80 1005.0
20260903183518 57 0 0.0 0.0 0.00 0.20 0.20 80 1005.1
20260903183034 57 0 0.0 0.0 0.00 0.20 0.20 80 1005.2
20260903182519 57 0 0.0 0.0 0.00 0.20 0.20 80 1005.2
20260903182015 57 0 0.0 4.0 0.00 0.20 0.20 80 1005.3
20260903181533 57 0 0.0 4.0 0.00 0.20 0.20 80 1005.3
20260903181019 57 0 0.0 2.0 0.00 0.20 0.20 79 1005.4
20260903180519 57 0 0.0 2.0 0.00 0.20 0.20 79 1005.5
20260903180036 57 0 0.0 2.0 0.00 0.20 0.20 79 1005.7
20260903175517 58 0 0.0 2.0 0.00 0.20 0.20 79 1005.7
20260903175016 58 0 0.0 1.0 0.00 0.20 0.20 78 1005.9
20260903174533 58 0 0.0 5.0 0.00 0.20 0.20 78 1005.8
20260903174015 58 0 0.0 8.0 0.00 0.20 0.20 77 1005.8
20260903173517 58 0 1.0 8.0 0.00 0.20 0.20 77 1005.8
20260903173033 58 0 0.0 4.0 0.00 0.20 0.20 77 1005.9
20260903172516 58 0 0.0 2.0 0.00 0.20 0.20 77 1006.1
20260903172016 59 0 0.0 1.0 0.00 0.20 0.20 77 1006.0
20260903171541 59 0 0.0 7.0 0.00 0.20 0.20 76 1006.0
20260903171018 59 0 0.0 7.0 0.00 0.20 0.20 76 1006.1
20260903170520 59 0 0.0 1.0 0.00 0.20 0.20 74 1006.1
20260903170035 60 0 0.0 4.0 0.00 0.20 0.20 74 1006.2
20260903165517 60 0 0.0 4.0 0.00 0.20 0.20 73 1006.3
20260903165018 60 0 0.0 5.0 0.00 0.20 0.20 72 1006.3
20260903164536 60 0 0.0 5.0 0.00 0.20 0.20 71 1006.2
20260903164017 60 0 0.0 7.0 0.00 0.20 0.20 71 1006.3
20260903163516 60 0 0.0 7.0 0.00 0.20 0.20 71 1006.3
20260903163035 60 0 0.0 7.0 0.00 0.20 0.20 71 1006.2
20260903162518 60 0 0.0 4.0 0.00 0.20 0.20 71 1006.1
20260903162019 60 0 0.0 4.0 0.00 0.20 0.20 71 1006.2
20260903161531 60 0 0.0 4.0 0.00 0.20 0.20 71 1006.4
20260903161019 60 0 0.0 10.0 0.00 0.20 0.20 71 1006.4
20260903160518 60 0 0.0 14.0 0.00 0.20 0.20 70 1006.7
20260903160038 60 244 0.0 14.0 0.00 0.20 0.20 70 1006.6
20260903155518 60 0 0.0 8.0 0.00 0.20 0.20 70 1006.7
20260903155017 60 249 0.0 8.0 0.00 0.20 0.20 71 1006.5
20260903154534 60 252 0.0 4.0 0.00 0.20 0.20 71 1006.5
20260903154016 60 240 0.0 7.0 0.00 0.20 0.20 71 1006.5
20260903153519 60 0 0.0 7.0 0.00 0.20 0.20 71 1006.6
20260903153034 60 0 0.0 7.0 0.00 0.20 0.20 71 1006.7
20260903152518 60 0 0.0 10.0 0.00 0.20 0.20 70 1006.7
20260903152018 61 0 0.0 10.0 0.00 0.20 0.20 71 1006.8
20260903151532 61 0 2.0 10.0 0.00 0.20 0.20 70 1006.9
20260903151015 61 249 1.0 9.0 0.00 0.20 0.20 70 1006.9
20260903150517 61 0 2.0 9.0 0.00 0.20 0.20 69 1006.9
20260903150034 62 0 0.0 9.0 0.00 0.20 0.20 70 1007.0
20260903145517 62 0 0.0 16.0 0.00 0.20 0.20 69 1007.0
20260903145020 62 236 1.0 16.0 0.00 0.20 0.20 67 1006.9
20260903144535 62 267 2.0 13.0 0.00 0.20 0.20 68 1007.0
20260903144016 63 0 2.0 10.0 0.00 0.20 0.20 68 1007.0
20260903143515 63 0 0.0 10.0 0.00 0.20 0.20 68 1006.9
20260903143033 63 0 0.0 10.0 0.00 0.20 0.20 67 1006.9
20260903142519 63 0 0.0 8.0 0.00 0.20 0.20 67 1006.9
20260903142017 63 263 1.0 8.0 0.00 0.20 0.20 66 1007.0
20260903141533 63 0 0.0 9.0 0.00 0.20 0.20 65 1007.0
20260903141015 63 0 0.0 9.0 0.00 0.20 0.20 64 1006.9
20260903140514 63 0 0.0 6.0 0.00 0.20 0.20 65 1007.1
20260903140034 63 0 0.0 6.0 0.00 0.20 0.20 63 1006.8
20260903135516 63 0 0.0 0.0 0.00 0.20 0.20 64 1006.8
20260903135016 63 0 0.0 8.0 0.00 0.20 0.20 64 1006.8
20260903134531 63 0 0.0 8.0 0.00 0.20 0.20 64 1006.9
20260903134015 63 0 0.0 8.0 0.00 0.20 0.20 62 1006.9
20260903133516 63 0 0.0 6.0 0.00 0.20 0.20 62 1007.0
20260903133035 63 0 0.0 5.0 0.00 0.20 0.20 61 1007.2
20260903132519 64 0 0.0 6.0 0.00 0.20 0.20 61 1007.2
20260903132015 64 0 0.0 6.0 0.00 0.20 0.20 60 1007.3
20260903131535 64 0 0.0 6.0 0.00 0.20 0.20 61 1007.1
20260903131018 64 0 0.0 4.0 0.00 0.20 0.20 61 1007.3
20260903130520 64 0 0.0 8.0 0.00 0.20 0.20 61 1007.3
20260903130035 63 0 0.0 8.0 0.00 0.20 0.20 61 1007.2
20260903125514 63 290 1.0 11.0 0.00 0.20 0.20 61 1007.4